Weather in Sfaks

Tunisia     34°44′23″N   10°45′36″E
temp.,
°C
wind,
m/s
gust,
m/s
humid.,
%
clouds,
%
prec.,
mm/h
press.,
hPa
HPBL,
m
26 february, fri
fri2601:00+13ne2380100 0.0 1029211
04:00+13ene348375 0.0 1028219
07:00+12ne238662 0.0 1029135
10:00+15e22702 0.0 1029736
13:00+16ese43633 0.0 1028673
16:00+15ese43600 0.0 1026572
19:00+14e34670 0.0 1026374
22:00+13e23740 0.0 1027330
27 february, sat
sat2701:00+12e22760 0.0 1026305
04:00+11wsw01780 0.0 1025121
07:00+11nw22820 0.0 102475
10:00+14ssw11670 0.0 1025424
13:00+15sse32600 0.0 1024565
16:00+15sse33590 0.0 1022417
19:00+14se34660 0.0 1022245
22:00+13sse33720 0.0 1024234
28 february, sun
sun2801:00+12s23750 0.0 1024238
04:00+11ese01780 0.0 102381
07:00+11nne12800 0.0 102490
10:00+14e22650 0.0 1025505
13:00+16ese33540 0.0 1024569
16:00+16ese44540 0.0 1023514
19:00+14ese45660 0.0 1024286
22:00+14ese34710 0.0 1025290
1 march, mon
mon101:00+13ese34750 0.0 1026249
04:00+12ese34770 0.0 1025171
07:00+12e34800 0.0 1025151
10:00+15e45660 0.0 1026693
13:00+16e55600 0.0 1025759
16:00+16e56620 0.0 1024715
19:00+15e56721 0.0 1025453
22:00+14e58812 0.0 1027471
2 march, tue
tue201:00+14ese688451 0.0 1027542
04:00+14ese688363 0.0 1026591
07:00+14e688069 0.1 1027641
10:00+16ese797173 0.1 1028987
13:00+16e896974 0.2 1028882
16:00+16e9107120 0.0 1027806
19:00+15e9117920 0.0 1027726
22:00+14e9128273 0.0 1028676